Regional Weather Roundup
Issued by NWS Kansas City/Pleasant Hill, MO

Home | Current Version | Previous Version | Graphics & Text | Print | Product List | Glossary Off
Versions: 1 2 3 4 5 6 7 8 9 10 11 12 13 14 15 16 17 18 19 20 21 22 23 24 25 26 27 28 29 30 31 32 33 34 35 36 37 38 39 40 41 42 43 44 45 46 47 48 49 50

000
ASUS43 KEAX 032110
RWREAX

WEATHER ROUNDUP FOR EASTERN KANSAS AND NORTHWEST MISSOURI
NATIONAL WEATHER SERVICE KANSAS CITY/PLEASANT HILL MO
300 PM CST TUE MAR 03 2015

KSZ040-057-103>105-MOZ028-029-037-043-032200-
...KANSAS CITY METROPOLITAN AREA...

CITY           SKY/WX    TMP DP  RH WIND       PRES   REMARKS
K.C. INTL      CLOUDY    41  31  67 NW12      29.83R WCI  34
K.C. DOWNTOWN  CLOUDY    46  32  58 NW14      29.83R
LEES SUMMIT    CLOUDY    42  34  73 N14G22    29.83R WCI  35
OLATHE - IXD   CLOUDY    43  33  68 NW14      29.83R
OLATHE - OJC   CLOUDY    43  33  68 N14G20    29.82R
LAWRENCE       CLOUDY    44  30  57 N17       29.84R

$$

MOZ001>008-011>017-020>025-030>033-038>040-044>046-053-054-032200-
...NORTHERN AND CENTRAL MISSOURI...

CITY           SKY/WX    TMP DP  RH WIND       PRES   REMARKS
ST. JOSEPH     CLOUDY    42  29  59 NW20      29.84S WCI  33
MOSBY          CLOUDY    41  32  70 NW13G20   29.83R WCI  34
WARRENSBURG    CLOUDY    43  37  81 SW6       29.82R
WHITEMAN AFB   NOT AVBL
CLINTON        CLOUDY    45  43  93 SW8       29.83R
SEDALIA        CLOUDY    44  39  82 W9G18     29.82S
WARSAW         NOT AVBL
MARSHALL       CLOUDY    45  43  93 SW10      29.80  FOG
CHILLICOTHE      N/A     39  33  79 NW9       29.83R WCI  33
MOBERLY        CLOUDY    41  37  87 SW9       29.79  FOG
KIRKSVILLE     NOT AVBL

$$

MOZ041-047>049-056>058-063>065-088>090-097-032200-
...EASTERN AND SOUTHERN MISSOURI...

CITY           SKY/WX    TMP DP  RH WIND       PRES   REMARKS
ST. LOUIS INTL CLOUDY    46  43  87 W5        29.81R FOG
SPIRIT OF STL  CLOUDY    45  44  97 CALM      29.80S
COLUMBIA       CLOUDY    44  39  82 W9        29.80R
JEFFERSON CITY CLOUDY    47  39  74 W13       29.81S
MEXICO         CLOUDY    43  41  93 W10       29.78F
HANNIBAL       CLOUDY    39  37  93 W12       29.80R FOG     WCI  32
ROLLA          CLOUDY    47  43  86 W12       29.79F
OSAGE BEACH    CLOUDY    48  37  66 W10G21    29.82S
SPRINGFIELD    CLOUDY    50  46  86 SW7       29.80F
BRANSON        CLOUDY    55  50  82 W8        29.83S
NEVADA         CLOUDY    46  41  81 SW7       29.83S
JOPLIN         CLOUDY    47  44  90 SW12G21   29.82F
WEST PLAINS    CLOUDY    51  46  83 W5        29.83F

$$

IAZ060-094-KSZ022-034>040-054-083-096-NEZ052-066-093-032200-
...KANSAS...SOUTHEAST NEBRASKA AND IOWA...

CITY           SKY/WX    TMP DP  RH WIND       PRES   REMARKS
TOPEKA         CLOUDY    45  28  51 N13       29.86R
MANHATTAN      CLOUDY    45  27  49 N9G17     29.86R
EMPORIA        CLOUDY    46  32  58 N14       29.82R
CHANUTE        CLOUDY    49  40  71 W9        29.83R
WICHITA        CLOUDY    46  30  53 N15       29.83R
OMAHA          PTSUNNY   32  20  61 N26G32    29.88R WCI  18
LINCOLN        PTSUNNY   34  16  47 N26       29.91S WCI  21
FALLS CITY     CLOUDY    39  25  57 NW23G31   29.86R WCI  28
LAMONI         CLOUDY    34  29  82 NW20G25   29.80R WCI  23
DES MOINES     CLOUDY    35  26  69 NW12      29.79R WCI  27

$$




USA.gov is the U.S. government's official web portal to all federal, state and local government web resources and services.